Year,Month,Day,Hour,Minute,Value (Times are PST for temperature in C)
2016,06,19,00,00,10.60
2016,06,19,00,01,10.60
2016,06,19,00,02,10.70
2016,06,19,00,03,10.60
2016,06,19,00,04,10.60
2016,06,19,00,05,10.60
2016,06,19,00,06,10.70
2016,06,19,00,07,10.80
2016,06,19,00,08,10.90
2016,06,19,00,09,10.90
2016,06,19,00,10,10.90
2016,06,19,00,11,10.90
2016,06,19,00,12,10.80
2016,06,19,00,13,10.80
2016,06,19,00,14,10.70
2016,06,19,00,15,10.70
2016,06,19,00,16,10.60
2016,06,19,00,17,10.60
2016,06,19,00,18,10.60
2016,06,19,00,19,10.60
2016,06,19,00,20,10.50
2016,06,19,00,21,10.50
2016,06,19,00,22,10.50
2016,06,19,00,23,10.50
2016,06,19,00,24,10.50
2016,06,19,00,25,10.50
2016,06,19,00,26,10.40
2016,06,19,00,27,10.40
2016,06,19,00,28,10.40
2016,06,19,00,29,10.40
2016,06,19,00,30,10.40
2016,06,19,00,31,10.40
2016,06,19,00,32,10.40
2016,06,19,00,33,10.40
2016,06,19,00,34,10.40
2016,06,19,00,35,10.40
2016,06,19,00,36,10.40
2016,06,19,00,37,10.40
2016,06,19,00,38,10.40
2016,06,19,00,39,10.40
2016,06,19,00,40,10.40
2016,06,19,00,41,10.40
2016,06,19,00,42,10.40
2016,06,19,00,43,10.40
2016,06,19,00,44,10.50
2016,06,19,00,45,10.60
2016,06,19,00,46,10.70
2016,06,19,00,47,10.70
2016,06,19,00,48,10.70
2016,06,19,00,49,10.70
2016,06,19,00,50,10.70
2016,06,19,00,51,10.70
2016,06,19,00,52,10.70
2016,06,19,00,53,10.70
2016,06,19,00,54,10.70
2016,06,19,00,55,10.80
2016,06,19,00,56,10.80
2016,06,19,00,57,10.80
2016,06,19,00,58,10.80
2016,06,19,00,59,10.70
2016,06,19,01,00,10.70
2016,06,19,01,01,10.70
2016,06,19,01,02,10.60
2016,06,19,01,03,10.60
2016,06,19,01,04,10.60
2016,06,19,01,05,10.60
2016,06,19,01,06,10.60
2016,06,19,01,07,10.50
2016,06,19,01,08,10.50
2016,06,19,01,09,10.50
2016,06,19,01,10,10.50
2016,06,19,01,11,10.40
2016,06,19,01,12,10.40
2016,06,19,01,13,10.40
2016,06,19,01,14,10.40
2016,06,19,01,15,10.40
2016,06,19,01,16,10.50
2016,06,19,01,17,10.50
2016,06,19,01,18,10.50
2016,06,19,01,19,10.50
2016,06,19,01,20,10.50
2016,06,19,01,21,10.50
2016,06,19,01,22,10.50
2016,06,19,01,23,10.50
2016,06,19,01,24,10.50
2016,06,19,01,25,10.40
2016,06,19,01,26,10.40
2016,06,19,01,27,10.40
2016,06,19,01,28,10.40
2016,06,19,01,29,10.40
2016,06,19,01,30,10.40
2016,06,19,01,31,10.40
2016,06,19,01,32,10.40
2016,06,19,01,33,10.40
2016,06,19,01,34,10.40
2016,06,19,01,35,10.40
2016,06,19,01,36,10.40
2016,06,19,01,37,10.40
2016,06,19,01,38,10.30
2016,06,19,01,39,10.30
2016,06,19,01,40,10.30
2016,06,19,01,41,10.30
2016,06,19,01,42,10.30
2016,06,19,01,43,10.20
2016,06,19,01,44,10.20
2016,06,19,01,45,10.20
2016,06,19,01,46,10.20
2016,06,19,01,47,10.20
2016,06,19,01,48,10.20
2016,06,19,01,49,10.20
2016,06,19,01,50,10.10
2016,06,19,01,51,10.10
2016,06,19,01,52,10.10
2016,06,19,01,53,10.10
2016,06,19,01,54,10.10
2016,06,19,01,55,10.10
2016,06,19,01,56,10.10
2016,06,19,01,57,10.10
2016,06,19,01,58,10.00
2016,06,19,01,59,10.00
2016,06,19,02,00,10.00
2016,06,19,02,01,10.00
2016,06,19,02,02,9.90
2016,06,19,02,03,9.90
2016,06,19,02,04,9.90
2016,06,19,02,05,9.90
2016,06,19,02,06,9.90
2016,06,19,02,07,9.90
2016,06,19,02,08,9.90
2016,06,19,02,09,9.80
2016,06,19,02,10,9.80
2016,06,19,02,11,9.80
2016,06,19,02,12,9.80
2016,06,19,02,13,9.80
2016,06,19,02,14,9.80
2016,06,19,02,15,9.80
2016,06,19,02,16,9.80
2016,06,19,02,17,9.80
2016,06,19,02,18,9.80
2016,06,19,02,19,9.80
2016,06,19,02,20,9.80
2016,06,19,02,21,9.80
2016,06,19,02,22,9.80
2016,06,19,02,23,9.80
2016,06,19,02,24,9.80
2016,06,19,02,25,9.80
2016,06,19,02,26,9.80
2016,06,19,02,27,9.90
2016,06,19,02,28,9.90
2016,06,19,02,29,10.00
2016,06,19,02,30,10.00
2016,06,19,02,31,10.10
2016,06,19,02,32,10.20
2016,06,19,02,33,10.20
2016,06,19,02,34,10.20
2016,06,19,02,35,10.20
2016,06,19,02,36,10.30
2016,06,19,02,37,10.30
2016,06,19,02,38,10.20
2016,06,19,02,39,10.20
2016,06,19,02,40,10.10
2016,06,19,02,41,10.10
2016,06,19,02,42,10.10
2016,06,19,02,43,10.20
2016,06,19,02,44,10.20
2016,06,19,02,45,10.10
2016,06,19,02,46,10.10
2016,06,19,02,47,10.10
2016,06,19,02,48,10.00
2016,06,19,02,49,10.00
2016,06,19,02,50,9.90
2016,06,19,02,51,9.90
2016,06,19,02,52,9.90
2016,06,19,02,53,9.90
2016,06,19,02,54,9.90
2016,06,19,02,55,9.90
2016,06,19,02,56,9.80
2016,06,19,02,57,9.80
2016,06,19,02,58,9.80
2016,06,19,02,59,9.80
2016,06,19,03,00,9.80
2016,06,19,03,01,9.80
2016,06,19,03,02,9.80
2016,06,19,03,03,9.80
2016,06,19,03,04,9.80
2016,06,19,03,05,9.80
2016,06,19,03,06,9.70
2016,06,19,03,07,9.70
2016,06,19,03,08,9.70
2016,06,19,03,09,9.70
2016,06,19,03,10,9.70
2016,06,19,03,11,9.70
2016,06,19,03,12,9.70
2016,06,19,03,13,9.70
2016,06,19,03,14,9.80
2016,06,19,03,15,9.80
2016,06,19,03,16,9.80
2016,06,19,03,17,9.80
2016,06,19,03,18,9.70
2016,06,19,03,19,9.70
2016,06,19,03,20,9.70
2016,06,19,03,21,9.70
2016,06,19,03,22,9.70
2016,06,19,03,23,9.80
2016,06,19,03,24,9.90
2016,06,19,03,25,9.90
2016,06,19,03,26,9.90
2016,06,19,03,27,9.90
2016,06,19,03,28,9.90
2016,06,19,03,29,9.90
2016,06,19,03,30,9.90
2016,06,19,03,31,9.90
2016,06,19,03,32,9.90
2016,06,19,03,33,9.80
2016,06,19,03,34,9.80
2016,06,19,03,35,9.80
2016,06,19,03,36,9.80
2016,06,19,03,37,9.80
2016,06,19,03,38,9.80
2016,06,19,03,39,9.80
2016,06,19,03,40,9.80
2016,06,19,03,41,9.80
2016,06,19,03,42,9.80
2016,06,19,03,43,9.80
2016,06,19,03,44,9.80
2016,06,19,03,45,9.70
2016,06,19,03,46,9.70
2016,06,19,03,47,9.70
2016,06,19,03,48,9.70
2016,06,19,03,49,9.70
2016,06,19,03,50,9.70
2016,06,19,03,51,9.70
2016,06,19,03,52,9.70
2016,06,19,03,53,9.70
2016,06,19,03,54,9.60
2016,06,19,03,55,9.60
2016,06,19,03,56,9.60
2016,06,19,03,57,9.60
2016,06,19,03,58,9.60
2016,06,19,03,59,9.70
2016,06,19,04,00,9.60
2016,06,19,04,01,9.70
2016,06,19,04,02,9.70
2016,06,19,04,03,9.70
2016,06,19,04,04,9.70
2016,06,19,04,05,9.70
2016,06,19,04,06,9.70
2016,06,19,04,07,9.70
2016,06,19,04,08,9.70
2016,06,19,04,09,9.70
2016,06,19,04,10,9.60
2016,06,19,04,11,9.60
2016,06,19,04,12,9.60
2016,06,19,04,13,9.60
2016,06,19,04,14,9.60
2016,06,19,04,15,9.60
2016,06,19,04,16,9.60
2016,06,19,04,17,9.60
2016,06,19,04,18,9.60
2016,06,19,04,19,9.60
2016,06,19,04,20,9.60
2016,06,19,04,21,9.60
2016,06,19,04,22,9.60
2016,06,19,04,23,9.60
2016,06,19,04,24,9.60
2016,06,19,04,25,9.60
2016,06,19,04,26,9.60
2016,06,19,04,27,9.60
2016,06,19,04,28,9.60
2016,06,19,04,29,9.60
2016,06,19,04,30,9.60
2016,06,19,04,31,9.60
2016,06,19,04,32,9.60
2016,06,19,04,33,9.60
2016,06,19,04,34,9.60
2016,06,19,04,35,9.70
2016,06,19,04,36,9.70
2016,06,19,04,37,9.70
2016,06,19,04,38,9.70
2016,06,19,04,39,9.70
2016,06,19,04,40,9.70
2016,06,19,04,41,9.70
2016,06,19,04,42,9.70
2016,06,19,04,43,9.80
2016,06,19,04,44,9.80
2016,06,19,04,45,9.80
2016,06,19,04,46,9.80
2016,06,19,04,47,9.80
2016,06,19,04,48,9.80
2016,06,19,04,49,9.80
2016,06,19,04,50,9.90
2016,06,19,04,51,9.90
2016,06,19,04,52,9.90
2016,06,19,04,53,9.90
2016,06,19,04,54,9.80
2016,06,19,04,55,9.80
2016,06,19,04,56,9.80
2016,06,19,04,57,9.80
2016,06,19,04,58,9.90
2016,06,19,04,59,9.90
2016,06,19,05,00,9.90
2016,06,19,05,01,10.00
2016,06,19,05,02,10.10
2016,06,19,05,03,10.10
2016,06,19,05,04,10.10
2016,06,19,05,05,10.00
2016,06,19,05,06,10.00
2016,06,19,05,07,10.00
2016,06,19,05,08,10.00
2016,06,19,05,09,10.00
2016,06,19,05,10,10.00
2016,06,19,05,11,10.00
2016,06,19,05,12,10.00
2016,06,19,05,13,10.00
2016,06,19,05,14,10.00
2016,06,19,05,15,10.00
2016,06,19,05,16,10.00
2016,06,19,05,17,10.00
2016,06,19,05,18,10.00
2016,06,19,05,19,10.00
2016,06,19,05,20,10.00
2016,06,19,05,21,10.00
2016,06,19,05,22,10.00
2016,06,19,05,23,10.00
2016,06,19,05,24,10.00
2016,06,19,05,25,10.00
2016,06,19,05,26,10.00
2016,06,19,05,27,10.00
2016,06,19,05,28,10.00
2016,06,19,05,29,10.00
2016,06,19,05,30,10.00
2016,06,19,05,31,10.00
2016,06,19,05,32,10.00
2016,06,19,05,33,10.00
2016,06,19,05,34,10.00
2016,06,19,05,35,10.00
2016,06,19,05,36,10.00
2016,06,19,05,37,10.10
2016,06,19,05,38,10.10
2016,06,19,05,39,10.10
2016,06,19,05,40,10.10
2016,06,19,05,41,10.10
2016,06,19,05,42,10.10
2016,06,19,05,43,10.20
2016,06,19,05,44,10.20
2016,06,19,05,45,10.20
2016,06,19,05,46,10.20
2016,06,19,05,47,10.20
2016,06,19,05,48,10.20
2016,06,19,05,49,10.20
2016,06,19,05,50,10.20
2016,06,19,05,51,10.20
2016,06,19,05,52,10.20
2016,06,19,05,53,10.20
2016,06,19,05,54,10.30
2016,06,19,05,55,10.40
2016,06,19,05,56,10.50
2016,06,19,05,57,10.50
2016,06,19,05,58,10.60
2016,06,19,05,59,10.60
2016,06,19,06,00,10.60
2016,06,19,06,01,10.60
2016,06,19,06,02,10.60
2016,06,19,06,03,10.60
2016,06,19,06,04,10.60
2016,06,19,06,05,10.60
2016,06,19,06,06,10.60
2016,06,19,06,07,10.60
2016,06,19,06,08,10.70
2016,06,19,06,09,10.70
2016,06,19,06,10,10.70
2016,06,19,06,11,10.80
2016,06,19,06,12,10.80
2016,06,19,06,13,10.90
2016,06,19,06,14,10.90
2016,06,19,06,15,10.90
2016,06,19,06,16,11.00
2016,06,19,06,17,11.00
2016,06,19,06,18,11.00
2016,06,19,06,19,11.10
2016,06,19,06,20,11.10
2016,06,19,06,21,11.10
2016,06,19,06,22,11.20
2016,06,19,06,23,11.20
2016,06,19,06,24,11.30
2016,06,19,06,25,11.30
2016,06,19,06,26,11.40
2016,06,19,06,27,11.50
2016,06,19,06,28,11.60
2016,06,19,06,29,11.70
2016,06,19,06,30,11.80
2016,06,19,06,31,11.80
2016,06,19,06,32,11.90
2016,06,19,06,33,12.00
2016,06,19,06,34,12.00
2016,06,19,06,35,12.10
2016,06,19,06,36,12.10
2016,06,19,06,37,12.10
2016,06,19,06,38,12.10
2016,06,19,06,39,12.10
2016,06,19,06,40,12.10
2016,06,19,06,41,12.10
2016,06,19,06,42,12.10
2016,06,19,06,43,12.20
2016,06,19,06,44,12.20
2016,06,19,06,45,12.20
2016,06,19,06,46,12.20
2016,06,19,06,47,12.20
2016,06,19,06,48,12.20
2016,06,19,06,49,12.20
2016,06,19,06,50,12.30
2016,06,19,06,51,12.30
2016,06,19,06,52,12.30
2016,06,19,06,53,12.30
2016,06,19,06,54,12.30
2016,06,19,06,55,12.30
2016,06,19,06,56,12.40
2016,06,19,06,57,12.40
2016,06,19,06,58,12.40
2016,06,19,06,59,12.40
2016,06,19,07,00,12.40
2016,06,19,07,01,12.50
2016,06,19,07,02,12.50
2016,06,19,07,03,12.50
2016,06,19,07,04,12.50
2016,06,19,07,05,12.50
2016,06,19,07,06,12.50
2016,06,19,07,07,12.50
2016,06,19,07,08,12.60
2016,06,19,07,09,12.50
2016,06,19,07,10,12.60
2016,06,19,07,11,12.60
2016,06,19,07,12,12.60
2016,06,19,07,13,12.60
2016,06,19,07,14,12.60
2016,06,19,07,15,12.60
2016,06,19,07,16,12.60
2016,06,19,07,17,12.60
2016,06,19,07,18,12.60
2016,06,19,07,19,12.60
2016,06,19,07,20,12.60
2016,06,19,07,21,12.60
2016,06,19,07,22,12.60
2016,06,19,07,23,12.60
2016,06,19,07,24,12.70
2016,06,19,07,25,12.70
2016,06,19,07,26,12.70
2016,06,19,07,27,12.70
2016,06,19,07,28,12.70
2016,06,19,07,29,12.70
2016,06,19,07,30,12.70
2016,06,19,07,31,12.70
2016,06,19,07,32,12.70
2016,06,19,07,33,12.70
2016,06,19,07,34,12.70
2016,06,19,07,35,12.70
2016,06,19,07,36,12.70
2016,06,19,07,37,12.70
2016,06,19,07,38,12.70
2016,06,19,07,39,12.70
2016,06,19,07,40,12.70
2016,06,19,07,41,12.70
2016,06,19,07,42,12.70
2016,06,19,07,43,12.70
2016,06,19,07,44,12.70
2016,06,19,07,45,12.70
2016,06,19,07,46,12.70
2016,06,19,07,47,12.70
2016,06,19,07,48,12.70
2016,06,19,07,49,12.80
2016,06,19,07,50,12.80
2016,06,19,07,51,12.80
2016,06,19,07,52,12.80
2016,06,19,07,53,12.80
2016,06,19,07,54,12.80
2016,06,19,07,55,12.80
2016,06,19,07,56,12.90
2016,06,19,07,57,12.90
2016,06,19,07,58,12.90
2016,06,19,07,59,12.90
2016,06,19,08,00,12.90
2016,06,19,08,01,13.00
2016,06,19,08,02,13.00
2016,06,19,08,03,13.00
2016,06,19,08,04,13.00
2016,06,19,08,05,13.00
2016,06,19,08,06,13.10
2016,06,19,08,07,13.10
2016,06,19,08,08,13.10
2016,06,19,08,09,13.10
2016,06,19,08,10,13.10
2016,06,19,08,11,13.20
2016,06,19,08,12,13.20
2016,06,19,08,13,13.20
2016,06,19,08,14,13.20
2016,06,19,08,15,13.20
2016,06,19,08,16,13.30
2016,06,19,08,17,13.30
2016,06,19,08,18,13.30
2016,06,19,08,19,13.40
2016,06,19,08,20,13.40
2016,06,19,08,21,13.40
2016,06,19,08,22,13.40
2016,06,19,08,23,13.40
2016,06,19,08,24,13.50
2016,06,19,08,25,13.50
2016,06,19,08,26,13.50
2016,06,19,08,27,13.50
2016,06,19,08,28,13.50
2016,06,19,08,29,13.60
2016,06,19,08,30,13.60
2016,06,19,08,31,13.70
2016,06,19,08,32,13.80
2016,06,19,08,33,13.80
2016,06,19,08,34,13.80
2016,06,19,08,35,13.80
2016,06,19,08,36,13.80
2016,06,19,08,37,13.80
2016,06,19,08,38,13.80
2016,06,19,08,39,13.90
2016,06,19,08,40,14.00
2016,06,19,08,41,14.00
2016,06,19,08,42,14.10
2016,06,19,08,43,14.10
2016,06,19,08,44,14.10
2016,06,19,08,45,14.20
2016,06,19,08,46,14.20
2016,06,19,08,47,14.20
2016,06,19,08,48,14.30
2016,06,19,08,49,14.30
2016,06,19,08,50,14.30
2016,06,19,08,51,14.30
2016,06,19,08,52,14.40
2016,06,19,08,53,14.50
2016,06,19,08,54,14.50
2016,06,19,08,55,14.60
2016,06,19,08,56,14.60
2016,06,19,08,57,14.60
2016,06,19,08,58,14.70
2016,06,19,08,59,14.70
2016,06,19,09,00,14.60
2016,06,19,09,01,14.60
2016,06,19,09,02,14.60
2016,06,19,09,03,14.50
2016,06,19,09,04,14.50
2016,06,19,09,05,14.50
2016,06,19,09,06,14.50
2016,06,19,09,07,14.50
2016,06,19,09,08,14.40
2016,06,19,09,09,14.40
2016,06,19,09,10,14.50
2016,06,19,09,11,14.50
2016,06,19,09,12,14.50
2016,06,19,09,13,14.60
2016,06,19,09,14,14.60
2016,06,19,09,15,14.60
2016,06,19,09,16,14.60
2016,06,19,09,17,14.60
2016,06,19,09,18,14.60
2016,06,19,09,19,14.60
2016,06,19,09,20,14.60
2016,06,19,09,21,14.60
2016,06,19,09,22,14.60
2016,06,19,09,23,14.60
2016,06,19,09,24,14.60
2016,06,19,09,25,14.70
2016,06,19,09,26,14.70
2016,06,19,09,27,14.70
2016,06,19,09,28,14.80
2016,06,19,09,29,14.90
2016,06,19,09,30,14.90
2016,06,19,09,31,15.00
2016,06,19,09,32,15.00
2016,06,19,09,33,15.00
2016,06,19,09,34,15.10
2016,06,19,09,35,15.10
2016,06,19,09,36,15.00
2016,06,19,09,37,15.00
2016,06,19,09,38,15.00
2016,06,19,09,39,15.10
2016,06,19,09,40,15.10
2016,06,19,09,41,15.00
2016,06,19,09,42,15.00
2016,06,19,09,43,14.90
2016,06,19,09,44,14.90
2016,06,19,09,45,14.90
2016,06,19,09,46,14.90
2016,06,19,09,47,15.00
2016,06,19,09,48,15.00
2016,06,19,09,49,15.10
2016,06,19,09,50,15.20
2016,06,19,09,51,15.20
2016,06,19,09,52,15.20
2016,06,19,09,53,15.20
2016,06,19,09,54,15.20
2016,06,19,09,55,15.10
2016,06,19,09,56,15.00
2016,06,19,09,57,14.90
2016,06,19,09,58,14.80
2016,06,19,09,59,14.80
2016,06,19,10,00,14.70
2016,06,19,10,01,14.70
2016,06,19,10,02,14.70
2016,06,19,10,03,14.70
2016,06,19,10,04,14.70
2016,06,19,10,05,14.70
2016,06,19,10,06,14.80
2016,06,19,10,07,14.80
2016,06,19,10,08,14.80
2016,06,19,10,09,14.80
2016,06,19,10,10,14.80
2016,06,19,10,11,14.80
2016,06,19,10,12,14.80
2016,06,19,10,13,14.80
2016,06,19,10,14,14.80
2016,06,19,10,15,14.70
2016,06,19,10,16,14.80
2016,06,19,10,17,14.80
2016,06,19,10,18,14.80
2016,06,19,10,19,14.80
2016,06,19,10,20,14.90
2016,06,19,10,21,15.00
2016,06,19,10,22,15.10
2016,06,19,10,23,15.10
2016,06,19,10,24,15.20
2016,06,19,10,25,15.20
2016,06,19,10,26,15.10
2016,06,19,10,27,15.10
2016,06,19,10,28,15.10
2016,06,19,10,29,15.20
2016,06,19,10,30,15.20
2016,06,19,10,31,15.30
2016,06,19,10,32,15.30
2016,06,19,10,33,15.30
2016,06,19,10,34,15.30
2016,06,19,10,35,15.40
2016,06,19,10,36,15.40
2016,06,19,10,37,15.40
2016,06,19,10,38,15.40
2016,06,19,10,39,15.40
2016,06,19,10,40,15.30
2016,06,19,10,41,15.30
2016,06,19,10,42,15.40
2016,06,19,10,43,15.40
2016,06,19,10,44,15.30
2016,06,19,10,45,15.20
2016,06,19,10,46,15.20
2016,06,19,10,47,15.20
2016,06,19,10,48,15.20
2016,06,19,10,49,15.20
2016,06,19,10,50,15.20
2016,06,19,10,51,15.20
2016,06,19,10,52,15.30
2016,06,19,10,53,15.30
2016,06,19,10,54,15.30
2016,06,19,10,55,15.20
2016,06,19,10,56,15.10
2016,06,19,10,57,15.10
2016,06,19,10,58,15.10
2016,06,19,10,59,15.10
2016,06,19,11,00,15.10
2016,06,19,11,01,15.20
2016,06,19,11,02,15.20
2016,06,19,11,03,15.30
2016,06,19,11,04,15.30
2016,06,19,11,05,15.30
2016,06,19,11,06,15.30
2016,06,19,11,07,15.20
2016,06,19,11,08,15.20
2016,06,19,11,09,15.20
2016,06,19,11,10,15.20
2016,06,19,11,11,15.10
2016,06,19,11,12,15.10
2016,06,19,11,13,15.20
2016,06,19,11,14,15.20
2016,06,19,11,15,15.10
2016,06,19,11,16,15.10
2016,06,19,11,17,15.10
2016,06,19,11,18,15.10
2016,06,19,11,19,15.10
2016,06,19,11,20,15.10
2016,06,19,11,21,15.10
2016,06,19,11,22,15.00
2016,06,19,11,23,15.10
2016,06,19,11,24,15.10
2016,06,19,11,25,15.10
2016,06,19,11,26,15.20
2016,06,19,11,27,15.20
2016,06,19,11,28,15.20
2016,06,19,11,29,15.30
2016,06,19,11,30,15.30
2016,06,19,11,31,15.30
2016,06,19,11,32,15.30
2016,06,19,11,33,15.30
2016,06,19,11,34,15.30
2016,06,19,11,35,15.40
2016,06,19,11,36,15.40
2016,06,19,11,37,15.40
2016,06,19,11,38,15.50
2016,06,19,11,39,15.50
2016,06,19,11,40,15.50
2016,06,19,11,41,15.50
2016,06,19,11,42,15.40
2016,06,19,11,43,15.40
2016,06,19,11,44,15.40
2016,06,19,11,45,15.50
2016,06,19,11,46,15.50
2016,06,19,11,47,15.60
2016,06,19,11,48,15.60
2016,06,19,11,49,15.70
2016,06,19,11,50,15.80
2016,06,19,11,51,15.80
2016,06,19,11,52,15.90
2016,06,19,11,53,15.90
2016,06,19,11,54,15.90
2016,06,19,11,55,16.00
2016,06,19,11,56,16.00
2016,06,19,11,57,16.10
2016,06,19,11,58,16.20
2016,06,19,11,59,16.30
2016,06,19,12,00,16.20
2016,06,19,12,01,16.20
2016,06,19,12,02,16.10
2016,06,19,12,03,16.00
2016,06,19,12,04,15.90
2016,06,19,12,05,15.90
2016,06,19,12,06,15.90
2016,06,19,12,07,15.90
2016,06,19,12,08,16.00
2016,06,19,12,09,16.00
2016,06,19,12,10,15.90
2016,06,19,12,11,16.00
2016,06,19,12,12,15.90
2016,06,19,12,13,15.90
2016,06,19,12,14,15.90
2016,06,19,12,15,15.80
2016,06,19,12,16,15.70
2016,06,19,12,17,15.70
2016,06,19,12,18,15.70
2016,06,19,12,19,15.70
2016,06,19,12,20,15.70
2016,06,19,12,21,15.80
2016,06,19,12,22,15.80
2016,06,19,12,23,15.80
2016,06,19,12,24,15.80
2016,06,19,12,25,15.90
2016,06,19,12,26,15.90
2016,06,19,12,27,16.00
2016,06,19,12,28,16.10
2016,06,19,12,29,16.20
2016,06,19,12,30,16.20
2016,06,19,12,31,16.30
2016,06,19,12,32,16.40
2016,06,19,12,33,16.50
2016,06,19,12,34,16.70
2016,06,19,12,35,16.80
2016,06,19,12,36,16.90
2016,06,19,12,37,17.00
2016,06,19,12,38,17.10
2016,06,19,12,39,17.20
2016,06,19,12,40,17.20
2016,06,19,12,41,17.10
2016,06,19,12,42,17.10
2016,06,19,12,43,16.90
2016,06,19,12,44,16.90
2016,06,19,12,45,16.80
2016,06,19,12,46,16.80
2016,06,19,12,47,16.80
2016,06,19,12,48,16.90
2016,06,19,12,49,16.80
2016,06,19,12,50,16.80
2016,06,19,12,51,16.90
2016,06,19,12,52,17.00
2016,06,19,12,53,17.00
2016,06,19,12,54,17.10
2016,06,19,12,55,17.20
2016,06,19,12,56,17.40
2016,06,19,12,57,17.40
2016,06,19,12,58,17.40
2016,06,19,12,59,17.40
2016,06,19,13,00,17.30
2016,06,19,13,01,17.20
2016,06,19,13,02,17.20
2016,06,19,13,03,17.20
2016,06,19,13,04,17.10
2016,06,19,13,05,17.10
2016,06,19,13,06,17.10
2016,06,19,13,07,17.10
2016,06,19,13,08,17.20
2016,06,19,13,09,17.20
2016,06,19,13,10,17.10
2016,06,19,13,11,17.10
2016,06,19,13,12,17.20
2016,06,19,13,13,17.20
2016,06,19,13,14,17.30
2016,06,19,13,15,17.40
2016,06,19,13,16,17.40
2016,06,19,13,17,17.40
2016,06,19,13,18,17.30
2016,06,19,13,19,17.30
2016,06,19,13,20,17.30
2016,06,19,13,21,17.20
2016,06,19,13,22,17.20
2016,06,19,13,23,17.30
2016,06,19,13,24,17.20
2016,06,19,13,25,17.10
2016,06,19,13,26,17.10
2016,06,19,13,27,17.00
2016,06,19,13,28,17.10
2016,06,19,13,29,17.10
2016,06,19,13,30,17.10
2016,06,19,13,31,17.20
2016,06,19,13,32,17.20
2016,06,19,13,33,17.20
2016,06,19,13,34,17.20
2016,06,19,13,35,17.20
2016,06,19,13,36,17.20
2016,06,19,13,37,17.30
2016,06,19,13,38,17.40
2016,06,19,13,39,17.60
2016,06,19,13,40,17.70
2016,06,19,13,41,17.70
2016,06,19,13,42,17.70
2016,06,19,13,43,17.80
2016,06,19,13,44,17.80
2016,06,19,13,45,17.80
2016,06,19,13,46,17.80
2016,06,19,13,47,17.80
2016,06,19,13,48,17.80
2016,06,19,13,49,17.80
2016,06,19,13,50,17.70
2016,06,19,13,51,17.60
2016,06,19,13,52,17.60
2016,06,19,13,53,17.50
2016,06,19,13,54,17.40
2016,06,19,13,55,17.30
2016,06,19,13,56,17.10
2016,06,19,13,57,17.00
2016,06,19,13,58,16.90
2016,06,19,13,59,16.80
2016,06,19,14,00,16.60
2016,06,19,14,01,16.60
2016,06,19,14,05,16.80
2016,06,19,14,06,16.90
2016,06,19,14,07,17.00
2016,06,19,14,08,17.10
2016,06,19,14,09,17.10
2016,06,19,14,10,17.20
2016,06,19,14,11,17.30
2016,06,19,14,12,17.40
2016,06,19,14,13,17.50
2016,06,19,14,14,17.60
2016,06,19,14,15,17.50
2016,06,19,14,16,17.60
2016,06,19,14,17,17.50
2016,06,19,14,18,17.40
2016,06,19,14,19,17.40
2016,06,19,14,20,17.20
2016,06,19,14,21,17.10
2016,06,19,14,22,17.00
2016,06,19,14,23,16.90
2016,06,19,14,24,16.80
2016,06,19,14,25,16.80
2016,06,19,14,26,16.80
2016,06,19,14,27,16.70
2016,06,19,14,28,16.70
2016,06,19,14,29,16.70
2016,06,19,14,30,16.80
2016,06,19,14,31,16.80
2016,06,19,14,32,16.80
2016,06,19,14,33,16.90
2016,06,19,14,34,17.10
2016,06,19,14,35,17.20
2016,06,19,14,36,17.20
2016,06,19,14,37,17.20
2016,06,19,14,38,17.20
2016,06,19,14,39,17.20
2016,06,19,14,40,17.20
2016,06,19,14,41,17.20
2016,06,19,14,42,17.30
2016,06,19,14,43,17.50
2016,06,19,14,44,17.60
2016,06,19,14,45,17.60
2016,06,19,14,46,17.60
2016,06,19,14,47,17.70
2016,06,19,14,48,17.70
2016,06,19,14,49,17.70
2016,06,19,14,50,17.70
2016,06,19,14,51,17.60
2016,06,19,14,52,17.60
2016,06,19,14,53,17.50
2016,06,19,14,54,17.50
2016,06,19,14,55,17.40
2016,06,19,14,56,17.40
2016,06,19,14,57,17.30
2016,06,19,14,58,17.30
2016,06,19,14,59,17.40
2016,06,19,15,00,17.40
2016,06,19,15,01,17.40
2016,06,19,15,02,17.50
2016,06,19,15,03,17.60
2016,06,19,15,04,17.60
2016,06,19,15,05,17.60
2016,06,19,15,06,17.60
2016,06,19,15,07,17.70
2016,06,19,15,08,17.70
2016,06,19,15,09,17.80
2016,06,19,15,10,17.90
2016,06,19,15,11,17.90
2016,06,19,15,12,17.90
2016,06,19,15,13,17.90
2016,06,19,15,14,17.90
2016,06,19,15,15,17.80
2016,06,19,15,16,17.80
2016,06,19,15,17,17.80
2016,06,19,15,18,17.70
2016,06,19,15,19,17.70
2016,06,19,15,20,17.70
2016,06,19,15,21,17.70
2016,06,19,15,22,17.70
2016,06,19,15,23,17.70
2016,06,19,15,24,17.80
2016,06,19,15,25,17.80
2016,06,19,15,26,17.80
2016,06,19,15,27,17.90
2016,06,19,15,28,17.90
2016,06,19,15,29,18.00
2016,06,19,15,30,18.10
2016,06,19,15,31,18.10
2016,06,19,15,32,18.00
2016,06,19,15,33,17.80
2016,06,19,15,34,17.70
2016,06,19,15,35,17.60
2016,06,19,15,36,17.70
2016,06,19,15,37,17.70
2016,06,19,15,38,17.80
2016,06,19,15,39,17.80
2016,06,19,15,40,17.80
2016,06,19,15,41,17.60
2016,06,19,15,42,17.50
2016,06,19,15,43,17.60
2016,06,19,15,44,17.50
2016,06,19,15,45,17.30
2016,06,19,15,46,17.30
2016,06,19,15,47,17.20
2016,06,19,15,48,17.20
2016,06,19,15,49,17.30
2016,06,19,15,50,17.30
2016,06,19,15,51,17.20
2016,06,19,15,52,17.20
2016,06,19,15,53,17.20
2016,06,19,15,54,17.20
2016,06,19,15,55,17.20
2016,06,19,15,56,17.20
2016,06,19,15,57,17.30
2016,06,19,15,58,17.40
2016,06,19,15,59,17.60
2016,06,19,16,00,17.60
2016,06,19,16,01,17.60
2016,06,19,16,02,17.60
2016,06,19,16,03,17.60
2016,06,19,16,04,17.40
2016,06,19,16,05,17.30
2016,06,19,16,06,17.00
2016,06,19,16,07,16.80
2016,06,19,16,08,16.70
2016,06,19,16,09,16.60
2016,06,19,16,10,16.40
2016,06,19,16,11,16.40
2016,06,19,16,12,16.30
2016,06,19,16,13,16.30
2016,06,19,16,14,16.40
2016,06,19,16,15,16.40
2016,06,19,16,16,16.50
2016,06,19,16,17,16.40
2016,06,19,16,18,16.40
2016,06,19,16,19,16.50
2016,06,19,16,20,16.50
2016,06,19,16,21,16.60
2016,06,19,16,22,16.60
2016,06,19,16,23,16.70
2016,06,19,16,24,16.80
2016,06,19,16,25,17.00
2016,06,19,16,26,17.10
2016,06,19,16,27,17.30
2016,06,19,16,28,17.50
2016,06,19,16,29,17.70
2016,06,19,16,30,17.90
2016,06,19,16,31,18.00
2016,06,19,16,32,18.20
2016,06,19,16,33,18.20
2016,06,19,16,34,18.30
2016,06,19,16,35,18.30
2016,06,19,16,36,18.10
2016,06,19,16,37,17.90
2016,06,19,16,38,17.80
2016,06,19,16,39,17.60
2016,06,19,16,40,17.40
2016,06,19,16,41,17.20
2016,06,19,16,42,17.00
2016,06,19,16,43,16.90
2016,06,19,16,44,16.80
2016,06,19,16,45,16.80
2016,06,19,16,46,16.90
2016,06,19,16,47,17.00
2016,06,19,16,48,17.10
2016,06,19,16,49,17.10
2016,06,19,16,50,17.20
2016,06,19,16,51,17.30
2016,06,19,16,52,17.40
2016,06,19,16,53,17.50
2016,06,19,16,54,17.70
2016,06,19,16,55,17.70
2016,06,19,16,56,17.80
2016,06,19,16,57,17.70
2016,06,19,16,58,17.70
2016,06,19,16,59,17.70
2016,06,19,17,00,17.70
2016,06,19,17,01,17.80
2016,06,19,17,02,17.80
2016,06,19,17,03,17.90
2016,06,19,17,04,17.90
2016,06,19,17,05,17.90
2016,06,19,17,06,17.90
2016,06,19,17,07,17.90
2016,06,19,17,08,18.00
2016,06,19,17,09,18.00
2016,06,19,17,10,18.00
2016,06,19,17,11,18.10
2016,06,19,17,12,18.10
2016,06,19,17,13,18.20
2016,06,19,17,14,18.20
2016,06,19,17,15,18.30
2016,06,19,17,16,18.30
2016,06,19,17,17,18.30
2016,06,19,17,18,18.20
2016,06,19,17,19,18.20
2016,06,19,17,20,18.10
2016,06,19,17,21,18.10
2016,06,19,17,22,18.10
2016,06,19,17,23,18.00
2016,06,19,17,24,17.90
2016,06,19,17,25,17.90
2016,06,19,17,26,17.90
2016,06,19,17,27,17.80
2016,06,19,17,28,17.80
2016,06,19,17,29,17.80